Location: Amherst
(42.5000°N, 72.5000°W)
Time: 02:27:33
(UTC-04:00)

ISS - Pass Details

Date: 13 July 2018
Orbit: 402 x 408 km, 51.6° (Epoch: 16 July)

Event Time Altitude Azimuth Distance (km) Brightness Sun altitude
Exits shadow 03:41:22 - 294° (WNW) 2,270 -0.2 -15.2°
Reaches altitude 10° 03:43:50 10° 315° (NW) 1,470 -0.9 -14.9°
Maximum altitude 03:46:03 17° 357° (N) 1,136 -0.9 -14.7°
Drops below altitude 10° 03:48:16 10° 40° (NE) 1,472 0.5 -14.4°
Sets 03:50:54 0° 62° (ENE) 2,334 1.4 -14.1°
